Weather History for West Yellowstone, MT

Change the Weather History Date:

Thursday, August 1, 2013

  Actual Average Record
Temperature  
Mean Temperature 64 °F -  
Max Temperature 82 °F 79 °F 82 °F (2012)
Min Temperature 46 °F 41 °F 35 °F (2014)
Degree Days  
Heating Degree Days 1    
Growing Degree Days 14 (Base 50)    
Moisture  
Dew Point 60 °F    
Average Humidity 85    
Maximum Humidity 89    
Minimum Humidity 81    
Precipitation  
Precipitation 0.00 in - - ()
Sea Level Pressure  
Sea Level Pressure 30.12 in    
Wind  
Wind Speed 7 mph (SW)    
Max Wind Speed 25 mph    
Max Gust Speed 38 mph    
Visibility 10 miles    
Events Rain    
Averages and records for this station are not official NWS values.
T = Trace of Precipitation, MM = Missing Value Source: NWS Daily Summary

Daily Weather History Graph

Daily Weather History Graph

Search for Another Location

Airport:

Trip Planner

Search our weather history database for the weather conditions in past years. The results will help you decide how hot, cold, wet, or windy it might be!

Date:

Astronomy

Aug. 01, 2013 Rise Set
Actual Time 6:11 AM MDT 8:49 PM MDT
Civil Twilight 5:37 AM MDT 9:23 PM MDT
Nautical Twilight 4:55 AM MDT 10:04 PM MDT
Astronomical Twilight 4:06 AM MDT 10:52 PM MDT
Moon 1:48 AM MDT (8/1) 5:03 PM MDT (8/1)
Length of Visible Light 15h 45m
Length of Day
14h 38m
Waning Crescent, 23% of the Moon is Illuminated
Aug 1
Waning Crescent
Aug 6
New
Aug 14
First Quarter
Aug 20
Full
Aug 28
Last Quarter

Hourly Weather History & Observations

Time (MDT) Temp. Windchill Dew Point Humidity Pressure Visibility Wind Dir Wind Speed Gust Speed Precip Events Conditions
12:10 AM 53.6 °F - 48.2 °F 82% 30.31 in 10.0 mi South 6.9 mph - N/A   Mostly Cloudy
12:30 AM 53.6 °F - 48.2 °F 82% 30.33 in 10.0 mi ESE 3.5 mph - N/A   Partly Cloudy
12:50 AM 53.6 °F - 48.2 °F 82% 30.31 in 10.0 mi North 5.8 mph - N/A   Clear
1:10 AM 51.8 °F - 46.4 °F 82% 30.29 in 10.0 mi NW 4.6 mph - N/A   Clear
1:30 AM 50.0 °F - 46.4 °F 87% 30.29 in 10.0 mi NNW 5.8 mph - N/A   Scattered Clouds
1:50 AM 50.0 °F - 46.4 °F 87% 30.29 in 10.0 mi SW 5.8 mph - N/A   Mostly Cloudy
2:10 AM 50.0 °F - 46.4 °F 87% 30.27 in 10.0 mi ESE 4.6 mph - N/A   Mostly Cloudy
2:30 AM 51.8 °F - 46.4 °F 82% 30.23 in 10.0 mi ESE 4.6 mph - N/A   Mostly Cloudy
2:50 AM 50.0 °F - 46.4 °F 87% 30.23 in 10.0 mi WSW 5.8 mph - N/A   Scattered Clouds
3:10 AM 50.0 °F - 44.6 °F 82% 30.23 in 10.0 mi Calm Calm - N/A   Partly Cloudy
3:30 AM 50.0 °F - 46.4 °F 87% 30.24 in 10.0 mi Calm Calm - N/A   Mostly Cloudy
3:50 AM 50.0 °F - 46.4 °F 87% 30.24 in 10.0 mi Calm Calm - N/A   Overcast
4:10 AM 50.0 °F - 46.4 °F 87% 30.23 in 10.0 mi ESE 8.1 mph - N/A   Mostly Cloudy
4:30 AM 50.0 °F - 46.4 °F 87% 30.22 in 10.0 mi SE 6.9 mph - N/A   Mostly Cloudy
4:50 AM 50.0 °F - 44.6 °F 82% 30.22 in 10.0 mi South 3.5 mph - N/A   Mostly Cloudy
5:10 AM 48.2 °F - 44.6 °F 87% 30.21 in 10.0 mi West 5.8 mph - N/A   Scattered Clouds
5:30 AM 48.2 °F - 44.6 °F 87% 30.21 in 10.0 mi NNW 3.5 mph - N/A   Partly Cloudy
5:50 AM 48.2 °F - 44.6 °F 87% 30.20 in 10.0 mi Calm Calm - N/A   Clear
6:10 AM 46.4 °F 45.2 °F 41.0 °F 81% 30.21 in 10.0 mi NW 3.5 mph - N/A   Clear
6:30 AM 46.4 °F - 42.8 °F 87% 30.21 in 10.0 mi Calm Calm - N/A   Partly Cloudy
6:50 AM 48.2 °F - 44.6 °F 87% 30.21 in 10.0 mi NW 3.5 mph - N/A   Partly Cloudy
7:10 AM 50.0 °F - 44.6 °F 82% 30.21 in 10.0 mi South 3.5 mph - N/A   Clear
7:30 AM 50.0 °F - 46.4 °F 87% 30.21 in 10.0 mi SSE 3.5 mph - N/A   Clear
7:50 AM 53.6 °F - 48.2 °F 82% 30.20 in 10.0 mi WSW 3.5 mph - N/A   Scattered Clouds
8:10 AM 53.6 °F - 48.2 °F 82% 30.19 in 10.0 mi Calm Calm - N/A   Partly Cloudy
8:30 AM 55.4 °F - 50.0 °F 82% 30.20 in 10.0 mi Calm Calm - N/A   Partly Cloudy
8:50 AM 55.4 °F - 51.8 °F 88% 30.20 in 10.0 mi WNW 4.6 mph - N/A   Scattered Clouds
9:10 AM 55.4 °F - 51.8 °F 88% 30.18 in 10.0 mi West 3.5 mph - N/A Rain Light Rain
9:30 AM 59.0 °F - 55.4 °F 88% 30.18 in 10.0 mi Calm Calm - N/A   Partly Cloudy
9:50 AM 62.6 °F - 57.2 °F 82% 30.16 in 10.0 mi SE 3.5 mph - N/A   Clear
10:10 AM 64.4 °F - 59.0 °F 83% 30.16 in 10.0 mi NE 4.6 mph - N/A   Clear
10:30 AM 64.4 °F - 60.8 °F 88% 30.15 in 10.0 mi NE 3.5 mph - N/A   Clear
10:50 AM 66.2 °F - 62.6 °F 88% 30.14 in 10.0 mi Calm Calm - N/A   Partly Cloudy
11:10 AM 68.0 °F - 64.4 °F 88% 30.13 in 10.0 mi East 3.5 mph - N/A   Clear
11:30 AM 69.8 °F - 64.4 °F 83% 30.13 in 10.0 mi Calm Calm - N/A   Clear
11:50 AM 73.4 °F - 68.0 °F 83% 30.12 in 10.0 mi WSW 6.9 mph - N/A   Clear
12:10 PM 73.4 °F - 68.0 °F 83% 30.11 in 10.0 mi West 5.8 mph - N/A   Clear
12:30 PM 77.0 °F - 73.4 °F 89% 30.10 in 10.0 mi SSW 15.0 mph 25.3 mph N/A   Clear
12:50 PM 78.8 °F - 73.4 °F 83% 30.09 in 10.0 mi SSW 15.0 mph 29.9 mph N/A   Clear
1:10 PM 78.8 °F - 73.4 °F 83% 30.08 in 10.0 mi SW 17.3 mph 29.9 mph N/A   Clear
1:30 PM 80.6 °F - 75.2 °F 84% 30.07 in 10.0 mi SSW 20.7 mph 32.2 mph N/A   Clear
1:50 PM 80.6 °F - 75.2 °F 84% 30.06 in 10.0 mi SSW 20.7 mph 33.4 mph N/A   Clear
2:10 PM 80.6 °F - 75.2 °F 84% 30.06 in 10.0 mi SSW 25.3 mph 34.5 mph N/A   Clear
2:30 PM 80.6 °F - 75.2 °F 84% 30.06 in 10.0 mi SW 19.6 mph 29.9 mph N/A   Partly Cloudy
2:50 PM 82.4 °F - 77.0 °F 84% 30.04 in 10.0 mi SSW 25.3 mph 31.1 mph N/A   Partly Cloudy
3:10 PM 82.4 °F - 77.0 °F 84% 30.04 in 10.0 mi SW 18.4 mph 36.8 mph N/A   Clear
3:30 PM 80.6 °F - 75.2 °F 84% 30.03 in 10.0 mi SSW 20.7 mph 36.8 mph N/A   Clear
3:50 PM 80.6 °F - 75.2 °F 84% 30.02 in 10.0 mi SSW 25.3 mph 34.5 mph N/A   Clear
4:10 PM 80.6 °F - 75.2 °F 84% 30.02 in 10.0 mi SSW 18.4 mph 29.9 mph N/A   Partly Cloudy
4:30 PM 82.4 °F - 77.0 °F 84% 30.01 in 10.0 mi SW 23.0 mph 38.0 mph N/A   Partly Cloudy
4:50 PM 80.6 °F - 77.0 °F 89% 30.02 in 10.0 mi SW 23.0 mph 36.8 mph N/A   Partly Cloudy
5:10 PM 82.4 °F - 77.0 °F 84% 30.01 in 10.0 mi SW 21.9 mph 32.2 mph N/A   Clear
5:30 PM 80.6 °F - 75.2 °F 84% 30.00 in 10.0 mi WSW 23.0 mph 35.7 mph N/A   Clear
5:50 PM 80.6 °F - 75.2 °F 84% 30.00 in 10.0 mi WSW 18.4 mph 32.2 mph N/A   Clear
6:10 PM 80.6 °F - 75.2 °F 84% 30.00 in 10.0 mi SW 17.3 mph 29.9 mph N/A   Clear
6:30 PM 78.8 °F - 73.4 °F 83% 30.00 in 10.0 mi SW 16.1 mph 29.9 mph N/A   Clear
6:50 PM 80.6 °F - 75.2 °F 84% 29.99 in 10.0 mi WSW 13.8 mph 20.7 mph N/A   Clear
7:10 PM 77.0 °F - 73.4 °F 89% 29.99 in 10.0 mi WSW 5.8 mph - N/A   Clear
7:30 PM 77.0 °F - 73.4 °F 89% 29.99 in 10.0 mi WSW 8.1 mph 20.7 mph N/A   Scattered Clouds
7:50 PM 77.0 °F - 71.6 °F 83% 29.98 in 10.0 mi SW 11.5 mph - N/A   Scattered Clouds
8:10 PM 73.4 °F - 69.8 °F 88% 29.98 in 10.0 mi West 4.6 mph - N/A   Scattered Clouds
8:30 PM 71.6 °F - 66.2 °F 83% 30.00 in 10.0 mi West 9.2 mph 18.4 mph N/A Rain Light Rain
8:50 PM 69.8 °F - 64.4 °F 83% 29.99 in 10.0 mi West 3.5 mph - N/A   Scattered Clouds
9:10 PM 68.0 °F - 62.6 °F 83% 30.01 in 10.0 mi WSW 5.8 mph - N/A   Mostly Cloudy
9:30 PM 66.2 °F - 60.8 °F 83% 30.02 in 10.0 mi NNW 5.8 mph - N/A   Mostly Cloudy
9:50 PM 64.4 °F - 60.8 °F 88% 30.04 in 10.0 mi WNW 4.6 mph - N/A   Overcast
10:10 PM 60.8 °F - 57.2 °F 88% 30.01 in 10.0 mi NNW 3.5 mph - N/A Rain Light Rain
10:30 PM 59.0 °F - 55.4 °F 88% 30.04 in 10.0 mi West 5.8 mph - N/A   Scattered Clouds
10:50 PM 59.0 °F - 55.4 °F 88% 30.02 in 10.0 mi NNE 4.6 mph - N/A   Mostly Cloudy
11:10 PM 59.0 °F - 53.6 °F 82% 30.02 in 10.0 mi Calm Calm - N/A   Mostly Cloudy
11:30 PM 59.0 °F - 53.6 °F 82% 30.02 in 10.0 mi NNW 5.8 mph - N/A   Mostly Cloudy
11:50 PM 57.2 °F - 51.8 °F 82% 30.04 in 10.0 mi Calm Calm - N/A Rain Light Rain